Location: *
(47.2969°N, 10.2930°E)
Time: 11:13:01
(UTC+00:00)

COSMOS 2428 - Pass Details

Date: 09 April 2020
Orbit: 846 x 856 km, 70.9° (Epoch: 25 May)

Event Time Altitude Azimuth Distance (km) Brightness Sun altitude
Rises 22:55:52 0° 337° (NNW) 3,425 6.8 -34.4°
Reaches altitude 10° 22:58:42 10° 349° (N) 2,484 5.9 -34.5°
Maximum altitude 23:03:33 28° 48° (NE) 1,552 4.3 -34.6°
Enters shadow 23:03:39 28° 50° (NE) 1,552 4.3 -34.6°
